This is the latest recevied weather packets stored in our database for station/object WD4IXD-WX. If no packets are shown the sender has not sent any weather packets the latest 10 day(s).
| Time | Temp. | Humidity | Pressure | Rain* | Wind** | Luminosity | Snow |
|---|---|---|---|---|---|---|---|
| 1777675804 | 5° C | 48% | 1020.7 hPa | 0 mm | - | 770 W/m² | - |
| 1777675504 | 4.44° C | 51% | 1020.6 hPa | 0 mm | - | 689 W/m² | - |
| 1777675204 | 5° C | 52% | 1020.6 hPa | 0 mm | - | 694 W/m² | - |
| 1777674904 | 4.44° C | 56% | 1020.6 hPa | 0 mm | - | 708 W/m² | - |
| 1777674604 | 4.44° C | 56% | 1020.6 hPa | 0 mm | - | 425 W/m² | - |
| 1777674305 | 3.89° C | 54% | 1020.6 hPa | 0 mm | - | 758 W/m² | - |
| 1777674005 | 3.89° C | 57% | 1020.6 hPa | 0 mm | - | 666 W/m² | - |
| 1777673704 | 3.33° C | 57% | 1020.7 hPa | 0 mm | - | 596 W/m² | - |
| 1777673404 | 3.33° C | 58% | 1020.8 hPa | 0 mm | - | 636 W/m² | - |
| 1777673103 | 3.33° C | 57% | 1020.7 hPa | 0 mm | - | 146 W/m² | - |
| 1777672804 | 3.33° C | 60% | 1020.8 hPa | 0 mm | - | 116 W/m² | - |
| 1777672504 | 3.89° C | 62% | 1020.8 hPa | 0 mm | - | 113 W/m² | - |
| 1777672204 | 3.33° C | 60% | 1020.8 hPa | 0.25 mm | - | 162 W/m² | - |
| 1777671904 | 3.33° C | 58% | 1020.8 hPa | 0.25 mm | - | 290 W/m² | - |
| 1777671604 | 3.89° C | 61% | 1020.8 hPa | 0.25 mm | - | 255 W/m² | - |
| 1777671304 | 3.89° C | 61% | 1020.9 hPa | 0.25 mm | - | 258 W/m² | - |
| 1777671004 | 3.89° C | 57% | 1020.9 hPa | 0.25 mm | - | 1097 W/m² | - |
| 1777670704 | 3.89° C | 55% | 1020.9 hPa | 0.25 mm | - | 1011 W/m² | - |
| 1777670404 | 3.33° C | 63% | 1020.9 hPa | 0.51 mm | - | 951 W/m² | - |
| 1777670104 | 3.89° C | 59% | 1020.9 hPa | 0.51 mm | - | 137 W/m² | - |
| 1777669804 | 3.89° C | 59% | 1021 hPa | 0.51 mm | - | 163 W/m² | - |
| 1777669504 | 3.89° C | 56% | 1021 hPa | 0.51 mm | - | 396 W/m² | - |
| 1777669203 | 3.89° C | 55% | 1021 hPa | 0.76 mm | - | 411 W/m² | - |
| 1777668904 | 4.44° C | 60% | 1021 hPa | 0.76 mm | - | 1202 W/m² | - |
| 1777668604 | 3.89° C | 58% | 1021.1 hPa | 0.76 mm | - | 1160 W/m² | - |
* Rain latest hour (hover to see other rain measurements)
** Current wind speed in m/s (hover to see current wind gust speed)